Regional Weather Roundup
Issued by NWS Cleveland, OH

Home | Current Version | Previous Version | Graphics & Text | Print | Product List | Glossary On
Versions: 1 2 3 4 5 6 7 8 9 10 11 12 13 14 15 16 17 18 19 20 21 22 23 24 25 26 27 28 29 30 31 32 33 34 35 36 37 38 39 40 41 42 43 44 45 46 47 48 49 50
000
ASUS41 KCLE 240710
RWRCLE
OHIO REGIONAL WEATHER ROUNDUP
NATIONAL WEATHER SERVICE WILMINGTON, OH
300 AM EDT THU JUL 24 2014

NOTE: "FAIR" INDICATES FEW OR NO CLOUDS BELOW 12,000 FEET WITH NO
SIGNIFICANT WEATHER AND/OR OBSTRUCTIONS TO VISIBILITY.

OHZ001>008-015>018-024>027-034-035-043-044-240800-
   NORTHWEST OHIO

CITY           SKY/WX    TMP DP  RH WIND       PRES   REMARKS
DEFIANCE       CLOUDY    64  56  75 NE7       30.07F
FINDLAY        CLEAR     61  56  83 NE9       30.05S
TOLEDO EXPRESS CLEAR     58  54  86 N3        30.07S
TOLEDO METCALF CLEAR     62  52  69 NE5       30.07S
LIMA           FOG       58  56  93 CALM      30.05F VSB 1/4
$$

OHZ009>014-019>023-028>033-038-089-240800-
   NORTHEAST OHIO

CITY           SKY/WX    TMP DP  RH WIND       PRES   REMARKS
CLE-HOPKINS    MOCLDY    64  57  78 N12       30.04F
CLE-LAKEFRONT  MOCLDY    66  58  75 N16G23    30.02F
CUY CO. ARPT   NOT AVBL
LORAIN-ELYRIA  MOCLDY    65  57  75 NE8       30.04F
ASHTABULA      CLOUDY    61  54  77 CALM      30.02F
AKRON-CANTON   PTCLDY    60  55  83 N6        30.02F
WOOSTER        CLEAR     55  53  93 N6        30.04S
MANSFIELD      CLEAR     55  54  96 N3        30.04F
YOUNGSTOWN     PTCLDY    57  55  93 CALM      30.01F
$$

OHZ042-051>053-060>062-070>072-077>081-240800-
  SOUTHWEST OHIO

CITY           SKY/WX    TMP DP  RH WIND       PRES   REMARKS
CINC-COVINGTON CLOUDY    67  62  84 NE14      30.00F
CINC-LUNKEN    CLOUDY    67  61  81 NE5       30.01S
HAMILTON       CLOUDY    67  61  81 NE8       30.02F
DAYTON         PTCLDY    59  57  93 NE5       30.05S
WRIGHT-PAT AFB CLEAR     60  57  89 NE6       30.03F
DAYTON GENERAL CLOUDY    64  56  75 NE12G18   30.02S
WILMINGTON     CLOUDY    63  54  72 NE12      30.02F
$$

OHZ036-037-039>041-045>050-054>059-063>069-073>076-082>088-240800-
  CENTRAL AND SOUTHEAST OHIO

CITY           SKY/WX    TMP DP  RH WIND       PRES   REMARKS
COLUMBUS       PTCLDY    62  55  77 N3        30.02F
OSU AIRPORT    CLEAR     58  54  86 N6        30.03F
BOLTON FIELD   CLEAR     59  56  90 NE6       30.02F
RICKENBACK AFB CLOUDY    64  53  68 N8        29.98F
NEWARK         CLOUDY    63  54  72 N7        30.01F
MARION         CLEAR     56  53  90 NE6       30.04F
LANCASTER      CLOUDY    63  58  83 CALM      30.01F
ZANESVILLE     CLOUDY    63  55  75 N5        30.01F
NEW PHILLY     PTCLDY    61  57  87 CALM      30.02F
$$



USA.gov is the U.S. government's official web portal to all federal, state and local government web resources and services.